Time,TemperatureF,DewpointF,PressureIn,WindDirection,WindDirectionDegrees,WindSpeedMPH,WindSpeedGustMPH,Humidity,HourlyPrecipIn,Conditions,Clouds,dailyrainin,SoftwareType,DateUTC
2013-11-08 00:13:00,30.0,-99.9,-100.00,North,-999,-999.0,-999.0,-999,0.00,,,0.08,,2013-11-08 06:13:00,
2013-11-08 00:23:00,30.0,-99.9,-100.00,North,-999,-999.0,-999.0,-999,0.00,,,0.08,,2013-11-08 06:23:00,
2013-11-08 00:30:00,29.0,-99.9,-100.00,North,-999,-999.0,-999.0,-999,0.00,,,0.08,,2013-11-08 06:30:00,
2013-11-08 00:53:00,29.0,-99.9,-100.00,North,-999,-999.0,-999.0,-999,0.00,,,0.08,,2013-11-08 06:53:00,
2013-11-08 01:02:00,29.0,-99.9,-100.00,North,-999,-999.0,-999.0,-999,0.00,,,0.08,,2013-11-08 07:02:00,
2013-11-08 01:12:00,29.0,-99.9,-100.00,North,-999,-999.0,-999.0,-999,0.00,,,0.08,,2013-11-08 07:12:00,
2013-11-08 01:22:00,29.0,-99.9,-100.00,North,-999,-999.0,-999.0,-999,0.00,,,0.08,,2013-11-08 07:22:00,
2013-11-08 01:30:00,28.0,-99.9,-100.00,North,-999,-999.0,-999.0,-999,0.00,,,0.08,,2013-11-08 07:30:00,
2013-11-08 01:52:00,28.0,-99.9,-100.00,North,-999,-999.0,-999.0,-999,0.00,,,0.08,,2013-11-08 07:52:00,
2013-11-08 02:02:00,28.0,-99.9,-100.00,North,-999,-999.0,-999.0,-999,0.00,,,0.08,,2013-11-08 08:02:00,
2013-11-08 02:12:00,28.0,-99.9,-100.00,North,-999,-999.0,-999.0,-999,0.00,,,0.08,,2013-11-08 08:12:00,
2013-11-08 02:22:00,28.0,-99.9,-100.00,North,-999,-999.0,-999.0,-999,0.00,,,0.08,,2013-11-08 08:22:00,
2013-11-08 02:30:00,26.0,-99.9,-100.00,North,-999,-999.0,-999.0,-999,0.00,,,0.08,,2013-11-08 08:30:00,
2013-11-08 03:12:00,26.0,-99.9,-100.00,North,-999,-999.0,-999.0,-999,0.00,,,0.08,,2013-11-08 09:12:00,
2013-11-08 03:22:00,26.0,-99.9,-100.00,North,-999,-999.0,-999.0,-999,0.00,,,0.08,,2013-11-08 09:22:00,
2013-11-08 03:30:00,29.0,-99.9,-100.00,North,-999,-999.0,-999.0,-999,0.00,,,0.08,,2013-11-08 09:30:00,
2013-11-08 04:13:00,29.0,-99.9,-100.00,North,-999,-999.0,-999.0,-999,0.00,,,0.08,,2013-11-08 10:13:00,
2013-11-08 04:23:00,29.0,-99.9,-100.00,North,-999,-999.0,-999.0,-999,0.00,,,0.08,,2013-11-08 10:23:00,
2013-11-08 04:30:00,30.0,-99.9,-100.00,North,-999,-999.0,-999.0,-999,0.00,,,0.08,,2013-11-08 10:30:00,
2013-11-08 05:12:00,30.0,-99.9,-100.00,North,-999,-999.0,-999.0,-999,0.00,,,0.08,,2013-11-08 11:12:00,
2013-11-08 05:22:00,30.0,-99.9,-100.00,North,-999,-999.0,-999.0,-999,0.00,,,0.08,,2013-11-08 11:22:00,
2013-11-08 05:30:00,36.0,-99.9,-100.00,North,-999,-999.0,-999.0,-999,0.00,,,0.08,,2013-11-08 11:30:00,
2013-11-08 06:12:00,36.0,-99.9,-100.00,North,-999,-999.0,-999.0,-999,0.00,,,0.08,,2013-11-08 12:12:00,
2013-11-08 06:22:00,36.0,-99.9,-100.00,North,-999,-999.0,-999.0,-999,0.00,,,0.08,,2013-11-08 12:22:00,
2013-11-08 07:30:00,37.0,-99.9,-100.00,North,-999,-999.0,-999.0,-999,0.00,,,0.08,,2013-11-08 13:30:00,
2013-11-08 08:11:00,37.0,-99.9,-100.00,North,-999,-999.0,-999.0,-999,0.00,,,0.08,,2013-11-08 14:11:00,
2013-11-08 08:22:00,37.0,-99.9,-100.00,North,-999,-999.0,-999.0,-999,0.00,,,0.08,,2013-11-08 14:22:00,
2013-11-08 08:30:00,38.0,-99.9,-100.00,North,-999,-999.0,-999.0,-999,0.01,,,0.09,,2013-11-08 14:30:00,
2013-11-08 08:52:00,38.0,-99.9,-100.00,North,-999,-999.0,-999.0,-999,0.01,,,0.09,,2013-11-08 14:52:00,
2013-11-08 09:02:00,38.0,-99.9,-100.00,North,-999,-999.0,-999.0,-999,0.01,,,0.09,,2013-11-08 15:02:00,
2013-11-08 09:11:00,38.0,-99.9,-100.00,North,-999,-999.0,-999.0,-999,0.01,,,0.09,,2013-11-08 15:11:00,
2013-11-08 09:22:00,38.0,-99.9,-100.00,North,-999,-999.0,-999.0,-999,0.01,,,0.09,,2013-11-08 15:22:00,
2013-11-08 09:30:00,40.0,-99.9,-100.00,North,-999,-999.0,-999.0,-999,0.02,,,0.11,,2013-11-08 15:30:00,
2013-11-08 10:13:00,40.0,-99.9,-100.00,North,-999,-999.0,-999.0,-999,0.02,,,0.11,,2013-11-08 16:13:00,
2013-11-08 10:23:00,40.0,-99.9,-100.00,North,-999,-999.0,-999.0,-999,0.02,,,0.11,,2013-11-08 16:23:00,
2013-11-08 11:30:00,46.0,-99.9,-100.00,North,-999,-999.0,-999.0,-999,0.05,,,0.20,,2013-11-08 17:30:00,
2013-11-08 11:53:00,46.0,-99.9,-100.00,North,-999,-999.0,-999.0,-999,0.05,,,0.20,,2013-11-08 17:53:00,
2013-11-08 12:02:00,46.0,-99.9,-100.00,North,-999,-999.0,-999.0,-999,0.05,,,0.20,,2013-11-08 18:02:00,
2013-11-08 12:12:00,46.0,-99.9,-100.00,North,-999,-999.0,-999.0,-999,0.05,,,0.20,,2013-11-08 18:12:00,
2013-11-08 12:22:00,46.0,-99.9,-100.00,North,-999,-999.0,-999.0,-999,0.05,,,0.20,,2013-11-08 18:22:00,
2013-11-08 12:30:00,45.0,-99.9,-100.00,North,-999,-999.0,-999.0,-999,0.03,,,0.22,,2013-11-08 18:30:00,
2013-11-08 13:12:00,45.0,-99.9,-100.00,North,-999,-999.0,-999.0,-999,0.03,,,0.22,,2013-11-08 19:12:00,
2013-11-08 13:22:00,45.0,-99.9,-100.00,North,-999,-999.0,-999.0,-999,0.03,,,0.22,,2013-11-08 19:22:00,
2013-11-08 13:30:00,47.0,-99.9,-100.00,North,-999,-999.0,-999.0,-999,0.01,,,0.22,,2013-11-08 19:30:00,
2013-11-08 13:53:00,47.0,-99.9,-100.00,North,-999,-999.0,-999.0,-999,0.01,,,0.22,,2013-11-08 19:53:00,
2013-11-08 14:02:00,47.0,-99.9,-100.00,North,-999,-999.0,-999.0,-999,0.01,,,0.22,,2013-11-08 20:02:00,
2013-11-08 14:12:00,47.0,-99.9,-100.00,North,-999,-999.0,-999.0,-999,0.01,,,0.22,,2013-11-08 20:12:00,
2013-11-08 14:22:00,47.0,-99.9,-100.00,North,-999,-999.0,-999.0,-999,0.01,,,0.22,,2013-11-08 20:22:00,
2013-11-08 14:30:00,49.0,-99.9,-100.00,North,-999,-999.0,-999.0,-999,0.00,,,0.20,,2013-11-08 20:30:00,
2013-11-08 15:12:00,49.0,-99.9,-100.00,North,-999,-999.0,-999.0,-999,0.00,,,0.20,,2013-11-08 21:12:00,
2013-11-08 15:23:00,49.0,-99.9,-100.00,North,-999,-999.0,-999.0,-999,0.00,,,0.20,,2013-11-08 21:23:00,
2013-11-08 15:30:00,51.0,-99.9,-100.00,North,-999,-999.0,-999.0,-999,0.00,,,0.18,,2013-11-08 21:30:00,
2013-11-08 15:55:00,51.0,-99.9,-100.00,North,-999,-999.0,-999.0,-999,0.00,,,0.18,,2013-11-08 21:55:00,
2013-11-08 16:04:00,51.0,-99.9,-100.00,North,-999,-999.0,-999.0,-999,0.00,,,0.18,,2013-11-08 22:04:00,
2013-11-08 16:14:00,51.0,-99.9,-100.00,North,-999,-999.0,-999.0,-999,0.00,,,0.18,,2013-11-08 22:14:00,
2013-11-08 16:24:00,51.0,-99.9,-100.00,North,-999,-999.0,-999.0,-999,0.00,,,0.18,,2013-11-08 22:24:00,
2013-11-08 17:30:00,50.0,-99.9,-100.00,North,-999,-999.0,-999.0,-999,0.00,,,0.17,,2013-11-08 23:30:00,
2013-11-08 17:54:00,50.0,-99.9,-100.00,North,-999,-999.0,-999.0,-999,0.00,,,0.17,,2013-11-08 23:54:00,
2013-11-08 18:02:00,50.0,-99.9,-100.00,North,-999,-999.0,-999.0,-999,0.00,,,0.17,,2013-11-09 00:02:00,
2013-11-08 18:12:00,50.0,-99.9,-100.00,North,-999,-999.0,-999.0,-999,0.00,,,0.17,,2013-11-09 00:12:00,
2013-11-08 18:22:00,50.0,-99.9,-100.00,North,-999,-999.0,-999.0,-999,0.00,,,0.17,,2013-11-09 00:22:00,
2013-11-08 18:52:00,48.0,-99.9,-100.00,North,-999,-999.0,-999.0,-999,0.00,,,0.17,,2013-11-09 00:52:00,
2013-11-08 19:30:00,47.0,-99.9,-100.00,North,-999,-999.0,-999.0,-999,0.00,,,0.17,,2013-11-09 01:30:00,
2013-11-08 19:52:00,47.0,-99.9,-100.00,North,-999,-999.0,-999.0,-999,0.00,,,0.17,,2013-11-09 01:52:00,
2013-11-08 20:02:00,47.0,-99.9,-100.00,North,-999,-999.0,-999.0,-999,0.00,,,0.17,,2013-11-09 02:02:00,
2013-11-08 20:12:00,47.0,-99.9,-100.00,North,-999,-999.0,-999.0,-999,0.00,,,0.17,,2013-11-09 02:12:00,
2013-11-08 20:22:00,47.0,-99.9,-100.00,North,-999,-999.0,-999.0,-999,0.00,,,0.17,,2013-11-09 02:22:00,
2013-11-08 20:30:00,47.0,-99.9,-100.00,North,-999,-999.0,-999.0,-999,0.00,,,0.17,,2013-11-09 02:30:00,
2013-11-08 20:52:00,47.0,-99.9,-100.00,North,-999,-999.0,-999.0,-999,0.00,,,0.17,,2013-11-09 02:52:00,
2013-11-08 21:02:00,47.0,-99.9,-100.00,North,-999,-999.0,-999.0,-999,0.00,,,0.17,,2013-11-09 03:02:00,
2013-11-08 21:12:00,47.0,-99.9,-100.00,North,-999,-999.0,-999.0,-999,0.00,,,0.17,,2013-11-09 03:12:00,
2013-11-08 21:22:00,47.0,-99.9,-100.00,North,-999,-999.0,-999.0,-999,0.00,,,0.17,,2013-11-09 03:22:00,
2013-11-08 21:30:00,47.0,-99.9,-100.00,North,-999,-999.0,-999.0,-999,0.00,,,0.17,,2013-11-09 03:30:00,
2013-11-08 21:55:00,47.0,-99.9,-100.00,North,-999,-999.0,-999.0,-999,0.00,,,0.17,,2013-11-09 03:55:00,
2013-11-08 22:04:00,47.0,-99.9,-100.00,North,-999,-999.0,-999.0,-999,0.00,,,0.17,,2013-11-09 04:04:00,
2013-11-08 22:13:00,47.0,-99.9,-100.00,North,-999,-999.0,-999.0,-999,0.00,,,0.17,,2013-11-09 04:13:00,
2013-11-08 22:24:00,47.0,-99.9,-100.00,North,-999,-999.0,-999.0,-999,0.00,,,0.17,,2013-11-09 04:24:00,
2013-11-08 22:30:00,46.0,-99.9,-100.00,North,-999,-999.0,-999.0,-999,0.00,,,0.17,,2013-11-09 04:30:00,
2013-11-08 22:54:00,46.0,-99.9,-100.00,North,-999,-999.0,-999.0,-999,0.00,,,0.17,,2013-11-09 04:54:00,
2013-11-08 23:03:00,46.0,-99.9,-100.00,North,-999,-999.0,-999.0,-999,0.00,,,0.17,,2013-11-09 05:03:00,
2013-11-08 23:13:00,46.0,-99.9,-100.00,North,-999,-999.0,-999.0,-999,0.00,,,0.17,,2013-11-09 05:13:00,
2013-11-08 23:23:00,46.0,-99.9,-100.00,North,-999,-999.0,-999.0,-999,0.00,,,0.17,,2013-11-09 05:23:00,
2013-11-08 23:30:00,45.0,-99.9,-100.00,North,-999,-999.0,-999.0,-999,0.00,,,0.17,,2013-11-09 05:30:00,
2013-11-08 23:53:00,45.0,-99.9,-100.00,North,-999,-999.0,-999.0,-999,0.00,,,0.17,,2013-11-09 05:53:00,